Location: Castillon
(43.1358°N, 0.8654°E)
Time: 02:36:01
(UTC+00:00)

Cosmos 1939 Rocket - Pass Details

Date: 24 January 2021
Orbit: 531 x 585 km, 97.4° (Epoch: 04 March)

Event Time Altitude Azimuth Distance (km) Brightness Sun altitude
Rises 17:31:07 0° 153° (SSE) 2,789 6.4 -6.3°
Reaches altitude 10° 17:33:18 10° 149° (SSE) 1,890 5.4 -6.7°
Maximum altitude 17:37:16 50° 74° (ENE) 738 3.1 -7.4°
Drops below altitude 10° 17:41:13 10° 358° (N) 1,880 5.4 -8.1°
Sets 17:43:24 0° 354° (N) 2,773 6.3 -8.4°
